Location: Star Dogged Moon Observatory
(29.7756°N, 82.0783°W)
Time: 15:16:18
(UTC-05:00)

Amateur Radio Satellites - All Passes

Search period start: 26 November 2014 14:46
Search period end: 27 November 2014 14:46
Location: Star Dogged Moon Observatory, 29.7756°N, 82.0783°W

Satellite Date Start Highest point End Downlink Frequencies (MHz)
Time Altitude Azimuth
ITUPSAT 1 26 Nov 14:46:52 14:50:49 26° 289° (WNW) 14:54:45 437.325
SWISSCUBE 26 Nov 14:58:17 15:01:28 18° 291° (WNW) 15:04:39 437.505
STARS 26 Nov 15:04:28 15:08:49 63° 101° (E) 15:13:10 437.465
YUBILEINY 26 Nov 15:11:39 15:19:35 42° 272° (W) 15:27:31 435.215
AO-7 26 Nov 15:16:38 15:24:24 47° 67° (ENE) 15:32:12 29.400- 29.500
ITAMSAT 1 26 Nov 15:27:55 15:30:12 13° 266° (W) 15:32:31 435.822/435.867
PHONESAT 2.4 26 Nov 15:41:03 15:44:08 24° 343° (NNW) 15:47:13 2401.200-2431.200
O/OREOS (USA 219) 26 Nov 15:43:21 15:47:06 26° 66° (ENE) 15:50:50 437.305
KKS-1 26 Nov 15:46:48 15:50:26 25° 289° (WNW) 15:54:04 437.445
VERMONT LUNAR 26 Nov 15:50:47 15:53:23 18° 348° (NNW) 15:56:00 437.305
HORYU 2 26 Nov 15:56:51 16:00:16 22° 263° (W) 16:03:42 437.375
Gurwin Techsat 1B 26 Nov 16:04:52 16:05:36 10° 267° (W) 16:06:19 435.225
RS-15 26 Nov 16:10:15 16:21:19 89° 115° (ESE) 16:32:17 29.354- 29.394
JAS-2 26 Nov 16:30:21 16:37:29 49° 71° (ENE) 16:44:57 435.910
MOZHAYETS 4 26 Nov 16:54:44 16:59:02 36° 98° (E) 17:03:17
AO-7 26 Nov 17:10:10 17:17:12 31° 261° (W) 17:24:18 29.400- 29.500
CUTE-I 26 Nov 17:11:03 17:15:08 23° 69° (ENE) 17:19:13 437.470
PHONESAT 2.4 26 Nov 17:21:29 17:23:45 15° 0° (N) 17:26:02 2401.200-2431.200
O/OREOS (USA 219) 26 Nov 17:23:00 17:26:17 20° 259° (W) 17:29:33 437.305
VERMONT LUNAR 26 Nov 17:30:31 17:32:46 15° 6° (N) 17:35:00 437.305
PRISM 26 Nov 17:54:15 17:57:47 26° 98° (E) 18:01:17 437.425
Cubesat XI-IV 26 Nov 18:08:14 18:13:37 89° 77° (ENE) 18:19:00 437.490
JAS-2 26 Nov 18:16:21 18:22:33 28° 266° (W) 18:29:04 435.910
RS-15 26 Nov 18:27:17 18:35:07 22° 317° (NW) 18:43:00 29.354- 29.394
MOZHAYETS 4 26 Nov 18:33:01 18:35:54 16° 291° (WNW) 18:38:47
CUBESAT XI-V 26 Nov 18:38:03 18:42:11 31° 98° (E) 18:46:15 437.345
BEESAT 3 26 Nov 18:44:42 18:46:12 12° 107° (ESE) 18:47:42 437.485
PCSat 26 Nov 18:49:07 18:53:59 35° 108° (ESE) 18:58:52 145.827
CUTE-I 26 Nov 18:50:05 18:54:56 34° 261° (W) 18:59:47 437.470
AIST 1 26 Nov 18:53:46 18:56:24 16° 88° (E) 18:59:01
HO-68 26 Nov 18:57:48 18:59:57 12° 59° (ENE) 19:02:07 435.675
BEESAT 2 26 Nov 18:59:30 19:02:07 17° 109° (ESE) 19:04:46 435.950
PHONESAT 2.4 26 Nov 19:00:17 19:03:23 24° 17° (NNE) 19:06:28 2401.200-2431.200
GONETS M04 26 Nov 19:05:18 19:13:20 38° 78° (ENE) 19:21:15
VERMONT LUNAR 26 Nov 19:08:36 19:11:56 33° 22° (NNE) 19:15:14 437.305
STRAND 1 26 Nov 19:24:06 19:29:12 85° 284° (WNW) 19:34:17 437.568
PRISM 26 Nov 19:30:10 19:33:06 19° 290° (WNW) 19:36:02 437.425
AIST 2 26 Nov 19:36:27 19:39:38 21° 110° (ESE) 19:42:52 435.215
CUTE 1.7 + AOD 2 26 Nov 19:39:16 19:39:43 10° 68° (ENE) 19:40:09 437.475
GOMX 1 26 Nov 19:49:05 19:50:29 11° 69° (ENE) 19:51:51 467.674
SEEDS 26 Nov 20:08:26 20:11:36 21° 72° (ENE) 20:14:47 437.485
CUBESAT XI-V 26 Nov 20:16:08 20:19:20 19° 290° (WNW) 20:22:31 437.345
BRITE-PL 26 Nov 20:17:56 20:22:38 38° 75° (ENE) 20:27:01 437.365/2234.400
BEESAT 3 26 Nov 20:20:09 20:23:59 40° 300° (WNW) 20:27:54 437.485
AAUSAT CUBESAT 2 26 Nov 20:23:34 20:26:53 24° 72° (ENE) 20:30:13 437.432
AIST 1 26 Nov 20:29:53 20:33:44 30° 280° (W) 20:37:36
PCSat 26 Nov 20:33:06 20:37:23 24° 302° (WNW) 20:41:43 145.827
CANX-2 26 Nov 20:36:26 20:40:35 65° 77° (ENE) 20:44:46 2200.000
BEESAT 2 26 Nov 20:36:31 20:40:07 29° 302° (WNW) 20:43:46 435.950
DOVE 4 26 Nov 20:38:30 20:42:37 31° 74° (ENE) 20:46:31 437.250
COMPASS 1 26 Nov 20:38:43 20:42:38 43° 75° (ENE) 20:46:35 437.405
PHONESAT 2.4 26 Nov 20:38:43 20:42:25 75° 212° (SSW) 20:46:06 2401.200-2431.200
HO-68 26 Nov 20:39:22 20:46:33 82° 74° (ENE) 20:53:46 435.675
DX 1 26 Nov 20:41:35 20:44:35 18° 70° (ENE) 20:47:35 434.975-435.025
VERMONT LUNAR 26 Nov 20:47:01 20:50:26 39° 216° (SW) 20:53:49 437.305
GONETS M04 26 Nov 21:02:08 21:09:56 37° 273° (W) 21:17:41
JUGNU 26 Nov 21:07:54 21:09:25 11° 160° (SSE) 21:10:56 437.505
CINEMA 3 26 Nov 21:08:34 21:12:42 39° 75° (ENE) 21:16:42 145.822/145.860
ZACube-1 26 Nov 21:11:05 21:13:49 17° 71° (ENE) 21:16:32 437.345
CUTE 1.7 + AOD 2 26 Nov 21:11:07 21:15:10 47° 260° (W) 21:19:14 437.475
AIST 2 26 Nov 21:14:37 21:18:05 25° 303° (WNW) 21:21:37 435.215
VELOX 1 26 Nov 21:15:58 21:17:58 13° 68° (ENE) 21:19:57 145.980
GOMX 1 26 Nov 21:23:24 21:28:13 54° 259° (W) 21:32:43 467.674
UKube-1 26 Nov 21:39:43 21:44:04 86° 257° (WSW) 21:48:26 .
AISAT 26 Nov 21:40:48 21:44:32 26° 72° (ENE) 21:48:16 437.250
SEEDS 26 Nov 21:44:03 21:47:17 22° 264° (W) 21:50:31 437.485
FUNcube-1 26 Nov 21:44:28 21:48:30 44° 75° (ENE) 21:52:28 145.935
Oscar 11 26 Nov 21:50:36 21:54:48 54° 260° (W) 21:59:01 145.826/435.025
CUBEBUG 1 26 Nov 21:53:19 21:54:34 11° 67° (ENE) 21:55:50 437.445
BRITE-PL 26 Nov 21:57:46 22:01:06 17° 264° (W) 22:04:18 437.365/2234.400
DELFI C3 26 Nov 21:59:24 22:03:19 48° 260° (W) 22:07:16 145.870
AAUSAT CUBESAT 2 26 Nov 21:59:29 22:02:28 19° 264° (W) 22:05:27 437.432
TIGRISAT 26 Nov 22:02:15 22:04:24 13° 95° (E) 22:06:34 435.000
50 SAT 26 Nov 22:06:02 22:09:46 37° 74° (ENE) 22:13:29 437.505
UWE-3 26 Nov 22:12:31 22:16:45 62° 259° (W) 22:20:54 435.000/436.395/437.385
CUBEBUG 2 26 Nov 22:14:08 22:18:19 50° 260° (W) 22:22:25 437.445
UNISAT 6 26 Nov 22:15:19 22:18:39 20° 96° (E) 22:22:01 437.425
DX 1 26 Nov 22:16:47 22:20:34 29° 262° (W) 22:24:22 434.975-435.025
DOVE 4 26 Nov 22:17:10 22:20:19 18° 263° (W) 22:23:22 437.250
COMPASS 1 26 Nov 22:18:00 22:18:31 10° 267° (W) 22:19:01 437.405
POPSAT HIP 1 26 Nov 22:19:15 22:21:09 13° 95° (E) 22:23:02 437.405
HUMSAT D 26 Nov 22:22:29 22:26:37 81° 77° (ENE) 22:30:45 437.325/437.525
HO-68 26 Nov 22:31:50 22:34:46 13° 267° (W) 22:37:43 435.675
ISS 26 Nov 22:39:40 22:42:56 77° 314° (NW) 22:46:13 145.825
ANTELSAT 26 Nov 22:43:19 22:47:38 44° 100° (E) 22:52:01 437.575/2403.000
ZACube-1 26 Nov 22:46:21 22:49:58 27° 262° (W) 22:53:33 437.345
CINEMA 3 26 Nov 22:48:06 22:49:58 12° 265° (W) 22:51:49 145.822/145.860
VELOX 1 26 Nov 22:49:51 22:54:07 43° 260° (W) 22:58:23 145.980
ESTCUBE 1 26 Nov 22:51:17 22:55:45 62° 76° (ENE) 23:00:15 437.505/2401.250
POLYITAN 1 26 Nov 22:51:34 22:55:27 35° 99° (E) 22:59:18 437.675
QB50P2 26 Nov 22:53:13 22:57:07 36° 99° (E) 23:01:02 145.880/145.840
JUGNU 26 Nov 22:53:20 22:57:52 23° 168° (SSE) 23:02:25 437.505
DUCHIFAT 1 26 Nov 22:58:36 23:02:36 42° 99° (E) 23:06:35 145.980
TISAT 1 26 Nov 22:59:53 23:02:24 16° 70° (ENE) 23:04:55 437.305
SRMSAT 26 Nov 23:06:48 23:10:02 15° 162° (SSE) 23:13:17 437.500
DANDE 26 Nov 23:08:19 23:11:11 14° 80° (E) 23:14:24 436.750
RS-15 26 Nov 23:09:34 23:14:49 14° 34° (NE) 23:20:07 29.354- 29.394
SPROUT 26 Nov 23:11:54 23:14:55 19° 71° (ENE) 23:17:56 437.525
AISAT 26 Nov 23:17:45 23:21:05 20° 264° (W) 23:24:25 437.250
NANOSAT C BR1 26 Nov 23:17:59 23:22:12 78° 102° (ESE) 23:26:25 145.865
CUBEBUG 1 26 Nov 23:26:09 23:30:27 50° 260° (W) 23:34:47 437.445
QB50P1 26 Nov 23:28:01 23:32:14 77° 283° (WNW) 23:36:27 145.935-145.965
BUGSAT 1 26 Nov 23:34:04 23:38:08 80° 283° (WNW) 23:42:09 437.445
TIGRISAT 26 Nov 23:37:02 23:41:13 41° 286° (WNW) 23:45:29 435.000
50 SAT 26 Nov 23:44:05 23:45:10 11° 266° (W) 23:46:15 437.505
UNISAT 6 26 Nov 23:51:33 23:55:21 27° 288° (WNW) 23:59:12 437.425
POPSAT HIP 1 26 Nov 23:53:15 23:57:07 36° 286° (WNW) 00:00:58 437.405
ITUPSAT 1 27 Nov 00:11:40 00:14:19 15° 68° (ENE) 00:16:57 437.325
CUSAT 1 27 Nov 00:19:13 00:24:30 88° 83° (E) 00:31:35 437.405
SWISSCUBE 27 Nov 00:21:11 00:24:46 21° 70° (ENE) 00:28:22 437.505
ANTELSAT 27 Nov 00:21:59 00:24:02 13° 291° (WNW) 00:26:06 437.575/2403.000
AUBIESAT-1 27 Nov 00:28:06 00:31:43 35° 68° (ENE) 00:35:39 437.475
POLYITAN 1 27 Nov 00:28:52 00:31:03 14° 291° (WNW) 00:33:15 437.675
QB50P2 27 Nov 00:30:39 00:32:41 13° 291° (WNW) 00:34:42 145.880/145.840
M-CUBED/EXP-1 PRIME 27 Nov 00:33:50 00:37:36 47° 70° (ENE) 00:41:44 437.505
TISAT 1 27 Nov 00:34:06 00:37:56 32° 262° (W) 00:41:46 437.305
DUCHIFAT 1 27 Nov 00:36:38 00:38:03 12° 292° (WNW) 00:39:28 145.980
JUGNU 27 Nov 00:41:16 00:46:25 31° 178° (S) 00:51:36 437.505
SPROUT 27 Nov 00:47:08 00:50:47 27° 263° (W) 00:54:27 437.525
DANDE 27 Nov 00:49:21 00:54:23 57° 263° (W) 01:01:08 436.750
BEESAT 27 Nov 00:51:00 00:55:29 42° 73° (ENE) 01:00:00 436.000
SRMSAT 27 Nov 00:53:46 00:58:41 27° 171° (S) 01:03:38 437.500
Oscar 19 27 Nov 01:09:52 01:14:03 25° 97° (E) 01:18:14 437.125/150
RS-15 27 Nov 01:18:59 01:30:08 59° 59° (ENE) 01:41:44 29.354- 29.394
MaSat-1 27 Nov 01:45:12 01:46:52 17° 252° (WSW) 01:48:36 437.345
ITUPSAT 1 27 Nov 01:47:13 01:51:46 44° 260° (W) 01:56:22 437.325
STARS 27 Nov 01:56:27 02:00:06 26° 72° (ENE) 02:03:45 437.465
SWISSCUBE 27 Nov 01:58:14 02:02:23 30° 262° (W) 02:06:35 437.505
ITAMSAT 1 27 Nov 02:04:50 02:09:26 32° 98° (E) 02:13:59 435.822/435.867
AUBIESAT-1 27 Nov 02:05:03 02:06:54 13° 263° (W) 02:08:48 437.475
YUBILEINY 27 Nov 02:07:57 02:16:13 47° 89° (E) 02:24:27 435.215
JUGNU 27 Nov 02:30:02 02:35:01 28° 188° (S) 02:40:01 437.505
BEESAT 27 Nov 02:30:53 02:33:26 14° 265° (W) 02:36:00 436.000
KKS-1 27 Nov 02:38:25 02:42:48 58° 259° (W) 02:47:11 437.445
SRMSAT 27 Nov 02:42:11 02:47:27 32° 181° (S) 02:52:42 437.500
Gurwin Techsat 1B 27 Nov 02:42:37 02:47:41 44° 100° (E) 02:52:43 435.225
Oscar 19 27 Nov 02:48:53 02:53:17 29° 289° (WNW) 02:57:41 437.125/150
SO-50 27 Nov 03:00:40 03:04:58 51° 114° (ESE) 03:09:24 436.795
AO-7 27 Nov 03:26:13 03:32:14 21° 97° (E) 03:38:12 29.400- 29.500
RS-15 27 Nov 03:32:16 03:41:53 33° 254° (WSW) 03:51:53 29.354- 29.394
STARS 27 Nov 03:33:17 03:36:30 20° 264° (W) 03:39:43 437.465
ITAMSAT 1 27 Nov 03:44:43 03:48:40 23° 291° (WNW) 03:52:36 435.822/435.867
MOZHAYETS 4 27 Nov 03:52:05 03:55:07 18° 70° (ENE) 03:58:09
HORYU 2 27 Nov 03:53:19 03:57:47 70° 284° (WNW) 04:02:16 437.375
YUBILEINY 27 Nov 04:05:40 04:13:04 30° 284° (WNW) 04:20:31 435.215
JUGNU 27 Nov 04:19:53 04:23:32 17° 197° (SSW) 04:27:11 437.505
Gurwin Techsat 1B 27 Nov 04:23:51 04:27:13 17° 293° (WNW) 04:30:36 435.225
SRMSAT 27 Nov 04:31:23 04:36:11 25° 191° (S) 04:40:59 437.500
SO-50 27 Nov 04:43:33 04:45:48 14° 309° (NW) 04:48:05 436.795
BEESAT 3 27 Nov 04:46:16 04:49:23 20° 56° (NE) 04:52:28 437.485
BEESAT 2 27 Nov 05:02:18 05:05:53 27° 57° (ENE) 05:09:25 435.950
AO-7 27 Nov 05:17:06 05:25:20 65° 290° (WNW) 05:33:34 29.400- 29.500
PCSat 27 Nov 05:25:40 05:31:06 79° 66° (ENE) 05:36:29 145.827
MOZHAYETS 4 27 Nov 05:27:56 05:32:02 33° 262° (W) 05:36:10
JAS-2 27 Nov 05:32:42 05:39:27 68° 101° (E) 05:45:21 435.910
CUTE-I 27 Nov 05:35:12 05:37:55 14° 94° (E) 05:40:37 437.470
CUBESAT XI-V 27 Nov 05:36:50 05:39:47 17° 69° (ENE) 05:42:44 437.345
AIST 2 27 Nov 05:41:42 05:45:39 35° 59° (ENE) 05:49:32 435.215
O/OREOS (USA 219) 27 Nov 05:48:49 05:53:19 85° 287° (WNW) 05:57:48 437.305
PRISM 27 Nov 06:13:56 06:18:02 53° 259° (W) 06:22:10 437.425
SRMSAT 27 Nov 06:22:11 06:24:50 13° 199° (SSW) 06:27:28 437.500
BEESAT 3 27 Nov 06:24:04 06:27:33 26° 249° (WSW) 06:30:59 437.485
Cubesat XI-IV 27 Nov 06:31:54 06:37:09 61° 101° (ESE) 06:42:22 437.490
STRAND 1 27 Nov 06:33:50 06:38:57 74° 76° (ENE) 06:44:06 437.568
BEESAT 2 27 Nov 06:40:59 06:43:56 19° 251° (WSW) 06:46:52 435.950
AIST 1 27 Nov 06:43:13 06:47:14 35° 81° (E) 06:51:12
ISS 27 Nov 06:49:15 06:52:33 82° 48° (NE) 06:55:50 145.825
CUBESAT XI-V 27 Nov 07:12:31 07:16:52 37° 262° (W) 07:21:14 437.345
CUTE-I 27 Nov 07:13:03 07:18:11 51° 286° (WNW) 07:23:17 437.470
JAS-2 27 Nov 07:19:54 07:23:33 15° 299° (WNW) 07:27:00 435.910
AIST 2 27 Nov 07:21:32 07:23:55 15° 252° (WSW) 07:26:17 435.215
GONETS M04 27 Nov 07:58:05 08:06:30 53° 90° (E) 08:14:58
Cubesat XI-IV 27 Nov 08:14:21 08:16:39 13° 295° (WNW) 08:18:57 437.490
HO-68 27 Nov 08:15:16 08:20:28 21° 96° (E) 08:25:37 435.675
AIST 1 27 Nov 08:22:38 08:24:28 13° 273° (W) 08:26:18
CANX-2 27 Nov 08:29:04 08:32:05 18° 96° (E) 08:35:05 2200.000
BRITE-PL 27 Nov 08:29:51 08:32:24 16° 96° (E) 08:35:00 437.365/2234.400
COMPASS 1 27 Nov 08:30:57 08:32:28 12° 94° (E) 08:34:00 437.405
DOVE 4 27 Nov 08:45:16 08:46:55 12° 95° (E) 08:48:36 437.250
CUTE 1.7 + AOD 2 27 Nov 09:02:35 09:06:42 44° 99° (E) 09:10:49 437.475
CINEMA 3 27 Nov 09:10:38 09:13:04 15° 96° (E) 09:15:33 145.822/145.860
GOMX 1 27 Nov 09:31:09 09:35:19 68° 101° (E) 09:39:41 467.674
SEEDS 27 Nov 09:33:44 09:38:02 83° 282° (WNW) 09:42:18 437.485
UKube-1 27 Nov 09:34:20 09:37:56 25° 98° (E) 09:41:31 .
ANTELSAT 27 Nov 09:38:12 09:41:09 19° 71° (ENE) 09:44:06 437.575/2403.000
FUNcube-1 27 Nov 09:40:31 09:42:49 14° 95° (E) 09:45:07 145.935
POLYITAN 1 27 Nov 09:41:09 09:43:10 13° 69° (ENE) 09:45:12 437.675
QB50P2 27 Nov 09:42:26 09:44:37 14° 69° (ENE) 09:46:47 145.880/145.840
Oscar 11 27 Nov 09:44:08 09:48:15 41° 99° (E) 09:52:22 145.826/435.025
DELFI C3 27 Nov 09:46:24 09:50:13 36° 99° (E) 09:54:02 145.870
DUCHIFAT 1 27 Nov 09:47:10 09:49:42 16° 70° (ENE) 09:52:13 145.980
AAUSAT CUBESAT 2 27 Nov 09:47:49 09:52:03 76° 283° (WNW) 09:56:17 437.432
GONETS M04 27 Nov 09:56:31 10:03:32 27° 286° (WNW) 10:10:39
HO-68 27 Nov 10:01:26 10:08:22 55° 289° (WNW) 10:15:17 435.675
COMPASS 1 27 Nov 10:04:20 10:08:18 40° 286° (WNW) 10:12:17 437.405
CANX-2 27 Nov 10:04:21 10:07:57 26° 287° (WNW) 10:11:33 2200.000
NANOSAT C BR1 27 Nov 10:05:39 10:09:13 27° 72° (ENE) 10:12:47 145.865
BRITE-PL 27 Nov 10:07:21 10:10:54 28° 287° (WNW) 10:14:33 437.365/2234.400
UWE-3 27 Nov 10:08:34 10:12:36 39° 99° (E) 10:16:44 435.000/436.395/437.385
DX 1 27 Nov 10:10:41 10:15:01 78° 102° (ESE) 10:19:20 434.975-435.025
CUBEBUG 2 27 Nov 10:11:07 10:15:18 51° 100° (E) 10:19:37 437.445
HUMSAT D 27 Nov 10:13:57 10:17:09 21° 97° (E) 10:20:22 437.325/437.525
QB50P1 27 Nov 10:15:24 10:19:17 35° 74° (ENE) 10:23:09 145.935-145.965
BUGSAT 1 27 Nov 10:18:43 10:22:30 31° 73° (ENE) 10:26:15 437.445
DOVE 4 27 Nov 10:20:49 10:24:45 39° 285° (WNW) 10:28:50 437.250
TIGRISAT 27 Nov 10:29:58 10:34:14 84° 77° (ENE) 10:38:29 435.000
POPSAT HIP 1 27 Nov 10:39:59 10:44:14 75° 77° (ENE) 10:48:29 437.405
ZACube-1 27 Nov 10:40:18 10:44:35 86° 102° (ESE) 10:48:58 437.345
CUTE 1.7 + AOD 2 27 Nov 10:40:48 10:42:11 11° 292° (WNW) 10:43:34 437.475
UNISAT 6 27 Nov 10:44:29 10:48:43 61° 259° (W) 10:52:56 437.425
CINEMA 3 27 Nov 10:46:26 10:50:17 33° 286° (WNW) 10:54:15 145.822/145.860
VELOX 1 27 Nov 10:46:43 10:51:04 56° 101° (E) 10:55:22 145.980
ESTCUBE 1 27 Nov 10:51:12 10:54:39 21° 96° (E) 10:58:04 437.505/2401.250
UKube-1 27 Nov 11:10:45 11:13:54 20° 290° (WNW) 11:17:01 .
AISAT 27 Nov 11:13:52 11:18:14 63° 284° (WNW) 11:22:35 437.250
ANTELSAT 27 Nov 11:14:11 11:17:45 26° 263° (W) 11:21:19 437.575/2403.000
POLYITAN 1 27 Nov 11:14:48 11:18:45 37° 261° (W) 11:22:43 437.675
FUNcube-1 27 Nov 11:15:19 11:19:11 34° 286° (WNW) 11:23:08 145.935
QB50P2 27 Nov 11:16:15 11:20:11 36° 261° (W) 11:24:06 145.880/145.840
CUBEBUG 1 27 Nov 11:21:28 11:25:40 47° 100° (E) 11:29:49 437.445
DUCHIFAT 1 27 Nov 11:21:28 11:25:16 31° 262° (W) 11:29:04 145.980
Oscar 11 27 Nov 11:22:09 11:24:00 13° 292° (WNW) 11:25:51 145.826/435.025
DELFI C3 27 Nov 11:23:16 11:25:09 13° 291° (WNW) 11:27:02 145.870
50 SAT 27 Nov 11:27:54 11:31:49 48° 285° (WNW) 11:35:47 437.505
SO-50 27 Nov 11:40:02 11:41:48 12° 50° (NE) 11:43:34 436.795
NANOSAT C BR1 27 Nov 11:42:07 11:45:02 18° 264° (W) 11:47:58 145.865
UWE-3 27 Nov 11:46:50 11:48:48 13° 291° (WNW) 11:50:47 435.000/436.395/437.385
HUMSAT D 27 Nov 11:49:34 11:52:50 22° 288° (WNW) 11:56:07 437.325/437.525
CUBEBUG 2 27 Nov 11:51:14 11:51:34 10° 292° (WNW) 11:51:54 437.445
QB50P1 27 Nov 11:53:08 11:55:14 13° 265° (W) 11:57:19 145.935-145.965
BUGSAT 1 27 Nov 11:55:29 11:57:59 15° 265° (W) 12:00:29 437.445
VERMONT LUNAR 27 Nov 11:56:50 11:58:57 15° 139° (SE) 12:01:03 437.305
DANDE 27 Nov 12:20:03 12:20:58 11° 95° (E) 12:21:52 436.750
Oscar 19 27 Nov 12:21:34 12:25:11 20° 69° (ENE) 12:28:48 437.125/150
TISAT 1 27 Nov 12:24:53 12:29:03 63° 101° (E) 12:33:11 437.305
ESTCUBE 1 27 Nov 12:27:41 12:31:24 26° 289° (WNW) 12:35:07 437.505/2401.250
YUBILEINY 27 Nov 12:27:57 12:32:43 16° 70° (ENE) 12:37:27 435.215
SPROUT 27 Nov 12:39:20 12:43:37 85° 102° (ESE) 12:47:53 437.525
BEESAT 27 Nov 12:58:31 13:01:46 18° 96° (E) 13:05:00 436.000
CUBEBUG 1 27 Nov 13:00:23 13:01:33 11° 293° (WNW) 13:02:44 437.445
ITAMSAT 1 27 Nov 13:17:13 13:21:33 27° 70° (ENE) 13:25:54 435.822/435.867
SO-50 27 Nov 13:17:56 13:22:49 72° 245° (WSW) 13:27:41 436.795
PHONESAT 2.4 27 Nov 13:28:38 13:32:18 67° 147° (SSE) 13:35:59 2401.200-2431.200
CUSAT 1 27 Nov 13:29:02 13:31:22 23° 279° (W) 13:33:32 437.405
VERMONT LUNAR 27 Nov 13:33:31 13:37:06 72° 331° (NNW) 13:40:43 437.305
AUBIESAT-1 27 Nov 13:50:52 13:55:47 86° 107° (ESE) 14:00:27 437.475
ITUPSAT 1 27 Nov 13:53:51 13:58:40 80° 102° (ESE) 14:03:26 437.325
M-CUBED/EXP-1 PRIME 27 Nov 13:57:14 14:02:09 73° 288° (WNW) 14:06:50 437.505
Gurwin Techsat 1B 27 Nov 13:57:51 14:02:44 39° 72° (ENE) 14:07:38 435.225
Oscar 19 27 Nov 13:59:33 14:04:12 36° 261° (W) 14:08:54 437.125/150
SWISSCUBE 27 Nov 14:04:12 14:08:59 70° 284° (WNW) 14:13:42 437.505
AO-7 27 Nov 14:20:12 14:25:20 18° 58° (ENE) 14:30:27 29.400- 29.500
YUBILEINY 27 Nov 14:21:38 14:30:20 81° 266° (W) 14:39:00 435.215
BEESAT 27 Nov 14:35:20 14:39:37 34° 288° (WNW) 14:43:53 436.000
KKS-1 27 Nov 14:35:53 14:40:06 42° 100° (E) 14:44:18 437.445
